DateTimeUTC,F1_A11,F1_S11,BsB_S11,BsG_S11,BsR_S11,BbsB_S11,BbsG_S11,BbsR_S11,BaB_A11,BaG_A11,BaR_A11,Tu_S11,T_S11,Uu_S11,U_S11,P_S11,T1_A11
2021-12-16T20:00:00Z,00000200,21000000,,,,,,,0000.15,-000.28,-000.14,20.6,27.5,,00.0,0641.0,31.2
2021-12-16T20:01:00Z,00000200,21000000,,,,,,,-000.27,0000.06,-000.25,20.6,27.5,,00.0,0641.1,31.2
2021-12-16T20:02:00Z,00000200,21000000,,,,,,,0000.10,-000.12,0000.47,20.6,27.5,,00.0,0641.1,31.2
2021-12-16T20:03:00Z,00000200,61000000,,,,,,,-000.10,0000.14,-000.56,20.6,27.5,,00.0,0641.1,31.2
2021-12-16T20:04:00Z,00000200,41000000,0000.17,-000.13,-000.19,-000.09,-000.13,-000.25,0000.36,-000.01,0000.47,20.9,27.4,,00.0,0641.9,31.2
2021-12-16T20:05:00Z,00000200,01000000,-000.20,0000.28,-000.11,0000.07,0000.01,0000.19,-000.33,-000.20,-000.08,20.9,27.4,,00.0,0641.9,31.2
2021-12-16T20:06:00Z,00000200,01000000,-000.09,0000.01,-000.35,-000.33,-000.06,-000.36,0000.31,0000.28,-000.04,20.8,27.3,,00.0,0641.9,31.2
2021-12-16T20:07:00Z,00000200,01000000,0000.05,0000.17,-000.08,0000.24,0000.03,-000.15,-000.04,-000.02,-000.03,20.8,27.3,,00.0,0641.9,31.2
2021-12-16T20:08:00Z,00000200,01000000,-000.68,-000.02,-000.31,0000.08,-000.19,0000.01,0000.16,0000.39,0000.17,20.8,27.3,,00.0,0641.8,31.2
2021-12-16T20:09:00Z,00000200,01000000,0000.00,-000.06,-000.19,-000.22,-000.29,-000.14,0000.19,-000.11,0000.28,20.9,27.3,,00.0,0641.9,31.2
2021-12-16T20:10:00Z,00000200,01000000,0000.35,0000.03,0000.02,-000.11,0000.19,-000.17,-000.08,0000.08,-000.09,20.9,27.3,,00.0,0641.9,31.2
2021-12-16T20:11:00Z,00000200,01000000,0000.08,0000.34,-000.02,0000.30,-000.04,0000.02,0000.25,0000.18,-000.06,20.9,27.3,,00.0,0641.9,31.2
2021-12-16T20:12:00Z,00000200,01000000,0000.08,0000.09,0000.01,-000.26,-000.05,-000.32,-000.00,-000.08,0000.32,20.9,27.3,,00.0,0641.9,31.2
2021-12-16T20:13:00Z,00000200,01000000,0000.38,0000.12,0000.01,-000.71,0000.21,-000.27,0000.03,0000.09,0000.01,21.0,27.4,,00.0,0641.9,31.2
2021-12-16T20:14:00Z,00000200,01000000,0000.52,0000.31,-000.11,0000.02,-000.16,-000.36,0000.25,0000.41,-000.16,21.0,27.4,,00.0,0641.9,31.2
2021-12-16T20:15:00Z,00000200,01000000,-000.29,0000.36,-000.14,0000.25,-000.13,-000.18,0000.15,0000.13,0000.43,21.0,27.4,,00.0,0641.9,31.2
2021-12-16T20:16:00Z,00000200,01000000,0000.40,0000.24,-000.08,0000.18,0000.21,-000.58,0000.20,0000.20,0000.18,21.0,27.4,,00.0,0641.9,31.2
2021-12-16T20:17:00Z,00000200,01000000,0000.13,0000.13,-000.26,-000.54,0000.13,-000.16,0000.06,-000.16,0000.13,21.1,27.4,,00.0,0641.9,31.2
2021-12-16T20:18:00Z,00000200,01000000,0000.03,-000.17,-000.06,0000.09,-000.23,0000.18,0000.03,0000.36,-000.01,21.1,27.4,,00.0,0641.8,31.2
2021-12-16T20:19:00Z,00000200,01000000,0000.19,-000.30,-000.20,-000.19,-000.17,-000.24,0000.14,-000.10,-000.13,21.1,27.5,,00.0,0641.9,31.2
2021-12-16T20:20:00Z,00000200,01000000,-000.83,0000.20,0000.14,0000.26,-000.28,0000.05,-000.16,0000.02,0000.31,21.1,27.4,,00.0,0641.8,31.2
2021-12-16T20:21:00Z,00000200,01000000,-000.01,-000.05,0000.16,-000.07,0000.05,0000.57,0000.15,-000.04,-000.05,21.2,27.5,,00.0,0641.9,31.2
2021-12-16T20:22:00Z,00000200,01000000,0000.01,0000.27,0000.07,0000.08,-000.09,0000.08,0000.04,0000.55,0000.28,21.2,27.5,,00.0,0641.9,31.2
2021-12-16T20:23:00Z,00000200,01000000,-000.06,0000.09,-000.10,0000.41,-000.08,-000.23,0000.28,-000.18,-000.24,21.2,27.5,,00.0,0641.9,31.2
2021-12-16T20:24:00Z,00000200,01000000,0000.67,0000.03,-000.04,-000.05,-000.08,0000.09,0000.11,-000.24,0000.29,21.2,27.5,,00.0,0641.9,31.2
2021-12-16T20:25:00Z,00000200,01000000,-000.11,0000.08,0000.09,-000.41,0000.16,0000.05,-000.23,-000.00,-000.29,21.2,27.5,,00.0,0642.0,31.2
2021-12-16T20:26:00Z,00000200,01000000,0000.19,-000.04,0000.18,0000.41,-000.05,-000.05,-000.10,0000.40,0000.03,21.2,27.5,,00.0,0642.0,31.2
2021-12-16T20:27:00Z,00000200,01000000,0000.36,0000.05,0000.05,0000.10,-000.12,-000.02,0000.10,-000.23,0000.05,21.3,27.6,,00.0,0642.0,31.3
2021-12-16T20:28:00Z,00000200,01000000,0000.44,0000.26,-000.10,0000.36,0000.04,-000.48,0000.18,-000.05,0000.23,21.3,27.6,,00.0,0642.0,31.3
2021-12-16T20:29:00Z,00000200,01000000,0000.57,-000.33,0000.43,0000.26,-000.08,-000.10,0000.02,-000.08,-000.18,21.3,27.6,,00.0,0641.9,31.3
2021-12-16T20:30:00Z,00000200,01000000,-001.03,0000.25,-000.22,0000.13,-000.31,-000.00,-000.22,0000.31,0000.07,21.4,27.6,,00.0,0641.9,31.3
2021-12-16T20:31:00Z,00000200,01000000,-000.13,-000.15,-000.08,0000.03,-000.18,-000.26,0000.58,0000.05,0000.00,21.4,27.6,,00.0,0642.0,31.3
2021-12-16T20:32:00Z,00000200,01000000,-000.21,-000.24,0000.06,0000.45,0000.08,-000.07,-000.02,-000.21,-000.20,21.4,27.7,,00.0,0642.0,31.3
2021-12-16T20:33:00Z,00000200,01000000,0000.28,0000.27,-000.19,-000.19,-000.20,-000.00,-000.48,0000.05,0000.22,21.4,27.7,,00.0,0642.0,31.3
2021-12-16T20:34:00Z,00000200,01000000,0000.06,0000.13,0000.14,-000.03,0000.02,-000.27,0000.21,0000.07,-000.37,21.4,27.7,,00.0,0642.0,31.3
2021-12-16T20:35:00Z,00000200,01000000,-001.39,-000.07,-000.03,-000.25,0000.03,0000.05,-000.12,-000.40,0000.26,21.3,27.6,,00.0,0642.0,31.3
2021-12-16T20:36:00Z,00000200,01000000,0000.55,0000.18,0000.19,0000.43,0000.05,0000.27,0000.06,0000.30,-000.04,21.3,27.6,,00.0,0642.0,31.3
2021-12-16T20:37:00Z,00000200,01000000,0000.17,0000.08,-000.03,0000.40,-000.09,0000.08,0000.26,0000.06,0000.20,21.3,27.6,,00.0,0642.0,31.3
2021-12-16T20:38:00Z,00000200,01000000,0000.95,0000.15,-000.06,0000.46,-000.12,-000.48,-000.31,0000.07,0000.05,21.3,27.6,,00.0,0641.9,31.3
2021-12-16T20:39:00Z,00000200,01000000,0000.22,-000.03,-000.27,-000.05,0000.06,-000.27,0000.27,0000.55,-000.12,21.3,27.6,,00.0,0641.9,31.3
2021-12-16T20:40:00Z,00000200,01000000,-000.47,0000.30,-000.14,0000.01,-000.30,-000.16,0000.10,-000.57,0000.34,21.3,27.6,,00.0,0642.0,31.3
2021-12-16T20:41:00Z,00000200,01000000,0000.20,0000.32,-000.15,-000.17,-000.34,-000.28,0000.06,0000.36,-000.06,21.3,27.6,,00.0,0642.0,31.3
2021-12-16T20:42:00Z,00000200,01000000,-000.03,0000.04,0000.01,0000.57,-000.22,0000.12,0000.12,0000.23,-000.11,21.3,27.7,,00.0,0642.0,31.3
2021-12-16T20:43:00Z,00000200,01000000,-000.05,-000.20,0000.14,-000.26,0000.25,0000.32,0000.04,0000.19,0000.48,21.3,27.7,,00.0,0642.0,31.3
2021-12-16T20:44:00Z,00000200,01000000,-000.18,0000.43,-000.18,-000.05,0000.14,0000.10,0000.01,-000.35,-000.33,21.2,27.6,,00.0,0642.0,31.3
2021-12-16T20:45:00Z,00000200,01000000,0000.19,0000.18,-000.09,-000.02,0000.42,0000.05,0000.31,0000.22,0000.37,21.1,27.6,,00.0,0642.0,31.2
2021-12-16T20:46:00Z,00000200,01000000,0000.35,-000.00,-000.08,-000.12,-000.21,-000.11,-000.15,0000.07,-000.02,21.0,27.5,,00.0,0641.9,31.2
2021-12-16T20:47:00Z,00000200,01000000,0000.47,0000.46,0000.08,-000.29,0000.29,-000.02,0000.14,0000.14,-000.18,21.0,27.5,,00.0,0641.9,31.1
2021-12-16T20:48:00Z,00000200,01000000,0000.07,0000.00,0000.08,-000.05,-000.14,0000.18,-000.02,-000.01,-000.13,20.8,27.4,,00.0,0642.0,31.1
2021-12-16T20:49:00Z,00000200,01000000,0000.20,0000.16,-000.12,0000.36,-000.15,-000.33,0000.08,-000.14,0000.20,20.8,27.4,,00.0,0641.9,31.1
2021-12-16T20:50:00Z,00000200,01000000,0000.81,-000.01,-000.21,-000.22,-000.08,-000.33,-000.12,0000.13,-000.23,20.7,27.3,,00.0,0641.9,31.1
2021-12-16T20:51:00Z,00000200,01000000,-000.32,-000.06,-000.04,-000.34,-000.14,0000.13,0000.16,-000.26,0000.08,20.6,27.3,,00.0,0641.9,31.1
2021-12-16T20:52:00Z,00000200,01000000,-000.39,0000.26,0000.10,0000.50,-000.16,0000.33,-000.37,0000.07,-000.23,20.6,27.2,,00.0,0641.9,31.1
2021-12-16T20:53:00Z,00000200,01000000,0000.16,0000.18,-000.06,-000.01,-000.17,-000.05,0000.51,-000.20,0000.37,20.7,27.2,,00.0,0642.0,31.1
2021-12-16T20:54:00Z,00000200,01000000,-000.05,0000.47,-000.14,-000.24,0000.08,-000.57,0000.19,0000.41,0000.18,20.7,27.2,,00.0,0642.0,31.1
2021-12-16T20:55:00Z,00000200,01000000,0001.03,0000.21,-000.25,0000.09,-000.19,0000.04,-000.26,0000.04,-000.02,20.8,27.3,,00.0,0642.1,31.1
2021-12-16T20:56:00Z,00000200,01000000,0000.86,-000.10,-000.17,-000.43,0000.21,-000.24,0000.20,0000.19,0000.07,20.8,27.3,,00.0,0642.1,31.1
2021-12-16T20:57:00Z,00000200,41000000,,,,,,,-000.02,0000.10,0000.45,20.8,27.3,,00.0,0642.1,31.2
2021-12-16T20:58:00Z,00000200,61000000,,,,,,,0000.16,-000.21,-000.32,20.6,27.4,,00.0,0641.3,31.2
2021-12-16T20:59:00Z,00000200,21000000,,,,,,,-000.04,0000.06,-000.04,20.6,27.5,,00.0,0641.3,31.2
